This is the latest recevied weather packets stored in our database for station/object EA6AMI-5. If no packets are shown the sender has not sent any weather packets the latest 10 day(s).
| Time | Temp. | Humidity | Pressure | Rain* | Wind** | Luminosity | Snow |
|---|---|---|---|---|---|---|---|
| 1787481364 | 30.56° C | 44% | 1017.3 hPa | 0 mm | - | 719 W/m² | - |
| 1787480823 | 30° C | 48% | 1017.3 hPa | 0 mm | - | 714 W/m² | - |
| 1787480284 | 30° C | 46% | 1017.6 hPa | 0 mm | - | 699 W/m² | - |
| 1787479743 | 29.44° C | 50% | 1017.5 hPa | 0 mm | - | 684 W/m² | - |
| 1787479203 | 29.44° C | 50% | 1017.6 hPa | 0 mm | - | 655 W/m² | - |
| 1787478843 | 29.44° C | 50% | 1017.5 hPa | 0 mm | - | 639 W/m² | - |
| 1787478303 | 29.44° C | 52% | 1017.8 hPa | 0 mm | - | 618 W/m² | - |
| 1787477763 | 29.44° C | 52% | 1017.6 hPa | 0 mm | - | 582 W/m² | - |
| 1787477223 | 28.33° C | 51% | 1017.7 hPa | 0 mm | - | 564 W/m² | - |
| 1787476683 | 28.89° C | 52% | 1017.7 hPa | 0 mm | - | 543 W/m² | - |
| 1787476143 | 28.33° C | 52% | 1017.5 hPa | 0 mm | - | 529 W/m² | - |
| 1787475604 | 28.33° C | 53% | 1017.5 hPa | 0 mm | - | 513 W/m² | - |
| 1787475244 | 28.33° C | 55% | 1017.6 hPa | 0 mm | - | 491 W/m² | - |
| 1787474703 | 28.33° C | 54% | 1017.3 hPa | 0 mm | - | 461 W/m² | - |
| 1787474163 | 27.78° C | 54% | 1017.5 hPa | 0 mm | - | 433 W/m² | - |
| 1787473623 | 27.78° C | 54% | 1017.4 hPa | 0 mm | - | 412 W/m² | - |
| 1787473083 | 27.78° C | 54% | 1017.5 hPa | 0 mm | - | 381 W/m² | - |
| 1787472543 | 27.78° C | 55% | 1017.3 hPa | 0 mm | - | 351 W/m² | - |
| 1787472003 | 27.78° C | 54% | 1017.8 hPa | 0 mm | - | 323 W/m² | - |
| 1787471643 | 27.78° C | 57% | 1017.6 hPa | 0 mm | - | 305 W/m² | - |
| 1787471104 | 27.22° C | 59% | 1017.6 hPa | 0 mm | - | 283 W/m² | - |
| 1787470563 | 27.22° C | 62% | 1017.8 hPa | 0 mm | - | 260 W/m² | - |
| 1787470023 | 26.67° C | 64% | 1017.8 hPa | 0 mm | - | 231 W/m² | - |
| 1787469483 | 26.67° C | 67% | 1018 hPa | 0 mm | - | 203 W/m² | - |
| 1787468944 | 26.67° C | 66% | 1017.8 hPa | 0 mm | - | 169 W/m² | - |
* Rain latest hour (hover to see other rain measurements)
** Current wind speed in m/s (hover to see current wind gust speed)